Regional Weather Roundup
Issued by NWS

Home | Current Version | Previous Version | Text Only | Print | Product List | Glossary On
Versions: 1 2 3 4 5 6 7 8 9 10 11 12 13 14 15 16 17 18 19 20 21 22 23 24 25 26 27 28 29 30 31 32 33 34 35 36 37 38 39 40 41 42 43 44 45 46 47 48 49 50
092
ASUS44 KFWD 252315
RWRTX
NORTH TEXAS HOURLY WEATHER ROUNDUP
NATIONAL WEATHER SERVICE FORT WORTH TX
600 PM CDT THU MAY 25 2017

NOTE: "FAIR" INDICATES FEW OR NO CLOUDS BELOW 12,000 FEET WITH NO
SIGNIFICANT WEATHER AND/OR OBSTRUCTIONS TO VISIBILITY.

TXZ118-119-260000-
DALLAS/FORT WORTH METROPLEX

CITY           SKY/WX    TMP DP  RH WIND       PRES   REMARKS
DFW AIRPORT    CLOUDY    91  60  35 S23G33    29.59F HX  90
DALLAS LOVE    PTSUNNY   90  60  36 S23G32    29.61F
FTW MEACHAM    SUNNY     94  59  31 S18G33    29.58F HX  93
DAL-EXECUTIVE  MOSUNNY   89  61  38 S12G25    29.62S
FTW-ALLIANCE   PTSUNNY   91  58  32 S18G30    29.58F HX  90
FTW-NAS-JRB    SUNNY     94  57  28 S20G29    29.59F HX  92
FTW-SPINKS     SUNNY     91  57  31 S20G31    29.62F HX  90
ARLINGTON      MOSUNNY   89  60  37 S23G30    29.61S
GRAND PRAIRIE  SUNNY     90  57  33 S22G31    29.63S
ADDISON        SUNNY     90  57  33 S23G31    29.62S
MESQUITE       SUNNY     88  59  37 S17G25    29.63F
LANCASTER      MOSUNNY   89  61  38 S15G23    29.64S
$$

TXZ091>094-102>105-117-120-121-131>134-260000-
NORTH CENTRAL TEXAS

CITY           SKY/WX    TMP DP  RH WIND       PRES   REMARKS
SHRMAN/DENISON CLOUDY    87  59  38 S20       29.61S
GAINESVILLE    SUNNY     90  56  31 S23G29    29.60S
BOWIE          SUNNY     90  56  31 S14G21    29.57S
BRIDGEPORT     SUNNY     93  56  28 S13G20    29.58F HX  91
DECATUR        SUNNY     91  56  30 S14G23    29.59S
DENTON         CLOUDY    90  60  36 S22       29.59F
MCKINNEY       CLOUDY    89  62  40 S22G30    29.61S
BONHAM         SUNNY     86  63  45 S16G30    29.63S
GREENVILLE     CLOUDY    88  61  40 S14G26    29.65R
ROCKWALL       CLOUDY    87  63  44 S23G32    29.63S
TERRELL        CLOUDY    87  61  41 S18G24    29.64S
WAXAHACHIE     PTSUNNY   88  62  40 S14G30    29.64S
CLEBURNE         N/A     90  61  37 S17G26    29.63S
GRANBURY       SUNNY     94  57  28 SE16G22   29.60F HX  93
$$

TXZ083>090-098>101-113>116-127>130-139>142-154-155-260000-
WESTERN NORTH TEXAS

CITY           SKY/WX    TMP DP  RH WIND       PRES   REMARKS
WICHITA FALLS  CLOUDY    93  60  33 S22G29    29.50F HX  93
WF-KICKAPOO    CLOUDY    94  61  32 S16G23    29.53S HX  94
VERNON         CLOUDY    98  45  16 S22       29.47F HX  93
ABILENE        CLOUDY    97  55  24 S14G24    29.58F HX  95
ABILENE-DYESS  PTSUNNY   97  59  28 S20       29.56F HX  96
GRAHAM         CLOUDY    95  60  30 S14G20    29.53F HX  95
BRECKENRIDGE   CLOUDY    95  56  27 S20G25    29.56S HAZE    HX  93
CISCO          CLOUDY    93  61  33 S14G21    29.61S HX  93
EASTLAND       SUNNY     93  59  31 S18G26    29.59S HX  92
RANGER         SUNNY     92  61  34 S13G22    29.61S HX  92
MINERAL WELLS  SUNNY     93  59  31 S17G28    29.57F HX  92
STEPHENVILLE   SUNNY     92  60  33 S10G20    29.64F HX  92
COMANCHE       CLOUDY    94  63  35 S13G22    29.62F HX  95
BROWNWOOD      LGT RAIN  95  59  30 S13       29.61F HX  94
COLEMAN        SUNNY     97  52  22 S14G24    29.63S HX  94
$$

TXZ143>147-156>162-174-175-260000-
CENTRAL TEXAS

CITY           SKY/WX    TMP DP  RH WIND       PRES   REMARKS
WACO           CLOUDY    90  61  37 S22G32    29.64F HX  90
WACO-TSTC      SUNNY     91  57  31 S22G29    29.65F HX  90
WACO-MCGREGOR  MOSUNNY   90  62  39 S21G31    29.65F HX  90
HILLSBORO      CLOUDY    90  62  38 S22G30    29.64S HX  90
CORSICANA      CLOUDY    89  61  38 S17G26    29.66F
MEXIA          CLOUDY    86  59  40 S17G33    29.66S
HEARNE         SUNNY     88  58  36 SE16G23   29.70S
CAMERON        SUNNY     90  60  36 S16G23    29.68S
TEMPLE         SUNNY     91  63  39 S25G31    29.65F HX  92
KILLEEN        SUNNY     90  62  39 S18G25    29.65F HX  91
KILLEEN-SKYLRK SUNNY     91  64  40 S20G28    29.65F HX  92
FORT HOOD      SUNNY     91  63  38 S16G26    29.63F HX  92
HAMILTON       SUNNY     92  59  33 S20G28    29.66S HX  91
LAMPASAS       SUNNY     91  65  41 S15G21    29.67S HX  92
$$

TXZ095>097-106>112-122>126-135>138-148>153-164>167-260000-
EAST TEXAS

CITY           SKY/WX    TMP DP  RH WIND       PRES   REMARKS
PARIS          CLOUDY    84  63  48 S20G25    29.65S
SULPHUR SPRNGS CLOUDY    86  60  41 S17G25    29.66S
MOUNT PLEASANT SUNNY     84  60  43 S16G22    29.68F
GILMER         SUNNY     85  62  44 S13G20    29.68F
MINEOLA        CLOUDY    84  64  51 S10       29.66F
TYLER          SUNNY     86  62  44 S22       29.67F
LONGVIEW       SUNNY     86  64  47 S17       29.69F
MARSHALL       SUNNY     85  60  43 S14       29.74S
ATHENS         CLOUDY    84  61  45 S10G16    29.65F
PALESTINE      SUNNY     87  64  46 S12G20    29.70F
JACKSONVILLE   SUNNY     85  62  45 S9G20     29.73F
HENDERSON      SUNNY     85  61  43 S10G18    29.72F
CENTER         CLEAR     89  65  44 S10G21    29.75F HX  90
NACOGDOCHES    SUNNY     86  63  45 S16       29.72S
LUFKIN         SUNNY     86  62  44 S13G22    29.74F
$$

SUPPLEMENTAL OBSERVATIONS (NWS FORT WORTH AREA)

CITY           SKY/WX    TMP DP  RH WIND       PRES   REMARKS
CADDO GRASSLND   N/A     84  59  42 S17G29      N/A
PAT MAYSE LAKE   N/A     82  57  42 SE20        N/A
GREENVILLE       N/A     86  63  45 S12G24      N/A
CEDAR HILL       N/A     90  59  35 S14G26      N/A
LBJ GRASSLAND    N/A     91  57  31 S14G23      N/A  HX  90
POSSUM KINGDOM   N/A     95  55  26 S13G22      N/A  HX  93
GRANBURY         N/A     93  57  29 S18G29      N/A  HX  92
MCGREGOR         N/A     91  59  33 S21G29      N/A  HX  90
TEMPLE           N/A     90  61  37 S18G28      N/A
$$

SUPPLEMENTAL OBSERVATIONS (NWS NORMAN AREA)

CITY           SKY/WX    TMP DP  RH WIND       PRES   REMARKS
GOODLETT         N/A    105  33   8 W18G24    29.45F HX  98
ODELL            N/A     96  53  23 SE18      29.48F HX  94
CROWELL          N/A    101  53  20 S17       29.46F HX  99
KNOX CITY        N/A    106  30   7 SW21      29.48F HX  99
SEYMOUR          N/A     98  54  22 S20G26    29.48F HX  96
MILLERS CREEK    N/A     97  55  24 S21G26      N/A  HX  95
$$

SUPPLEMENTAL OBSERVATIONS (NWS SAN ANGELO AREA)

CITY           SKY/WX    TMP DP  RH WIND       PRES   REMARKS
HASKELL          N/A    101  43  13 S16G23    29.51S HX  96
THROCKMORTON     N/A     96  61  30 S10       29.54S HX  96
STAMFORD         N/A     99  58  25 S16       29.54S HX  98
CLYDE            N/A     92  60  34 S16       29.62S HX  91
HAMBY            N/A     97  57  26 S18G24      N/A  HX  95
IVIE RESERVOIR   N/A     95  55  26 S10G20      N/A  HX  93
COLORADO BEND    N/A    N/A N/A N/A SW12        N/A
$$

SUPPLEMENTAL OBSERVATIONS (NWS SHREVEPORT AREA)

CITY           SKY/WX    TMP DP  RH WIND       PRES   REMARKS
CLARKSVILLE      N/A     84  59  42 S13G26      N/A
TEXARKANA        N/A     84  61  45 S5G13       N/A
LINDEN           N/A     86  59  39 S8G16       N/A
GILMER           N/A     86  61  42 S6G18       N/A
HENDERSON        N/A     86  61  42 S10         N/A
LUFKIN           N/A     88  63  42 MISG        N/A
N SABINE NF      N/A     88  64  45 MISG        N/A
S SABINE NF      N/A     88  64  45 S5          N/A
$$

SUPPLEMENTAL OBSERVATIONS ARE A COLLECTION OF AUTOMATED INSTRUMENTS
THAT ARE MAINTAINED BY A VARIETY OF FEDERAL AND STATE AGENCIES.
CERTAIN ELEMENTS...SUCH AS HUMIDITY VALUES AND SUSTAINED WIND
SPEEDS...MAY BE APPROXIMATED.





USA.gov is the U.S. government's official web portal to all federal, state and local government web resources and services.